Weather History for Brainerd, MN

Change the Weather History Date:

Saturday, March 16, 2013

  Actual Average Record
Temperature  
Mean Temperature 11 °F -  
Max Temperature 21 °F 36 °F 75 °F (2012)
Min Temperature 0 °F 13 °F -14 °F (1997)
Degree Days  
Heating Degree Days 54    
Moisture  
Dew Point 3 °F    
Average Humidity 63    
Maximum Humidity 80    
Minimum Humidity 48    
Precipitation  
Precipitation 0.00 in - - ()
Sea Level Pressure  
Sea Level Pressure 30.16 in    
Wind  
Wind Speed 9 mph (NNW)    
Max Wind Speed 16 mph    
Max Gust Speed 25 mph    
Visibility 8 miles    
Events Snow    
Averages and records for this station are not official NWS values.
T = Trace of Precipitation, MM = Missing Value Source: NWS Daily Summary

Daily Weather History Graph

Daily Weather History Graph

Search for Another Location

Airport:

Trip Planner

Search our weather history database for the weather conditions in past years. The results will help you decide how hot, cold, wet, or windy it might be!

Date:

Astronomy

Mar. 16, 2013 Rise Set
Actual Time 7:26 AM CDT 7:24 PM CDT
Civil Twilight 6:56 AM CDT 7:54 PM CDT
Nautical Twilight 6:21 AM CDT 8:29 PM CDT
Astronomical Twilight 5:45 AM CDT 9:05 PM CDT
Moon 9:39 AM CDT (3/16) No Moon Set
Length of Visible Light 12h 57m
Length of Day
11h 57m
Waxing Crescent, 23% of the Moon is Illuminated
Mar 16
Waxing Crescent
Mar 19
First Quarter
Mar 27
Full
Apr 2
Last Quarter
Apr 10
New

Hourly Weather History & Observations

Time (CDT) Temp. Windchill Dew Point Humidity Pressure Visibility Wind Dir Wind Speed Gust Speed Precip Events Conditions
12:53 AM 19.9 °F 10.1 °F 14.0 °F 78% 30.04 in 5.0 mi NNE 8.1 mph - 0.00 in Snow Light Snow
1:16 AM 19.4 °F 8.6 °F 12.2 °F 74% 29.97 in 10.0 mi North 9.2 mph - 0.00 in   Overcast
1:53 AM 17.1 °F 5.8 °F 10.9 °F 77% 30.05 in 10.0 mi North 9.2 mph - 0.00 in   Overcast
2:13 AM 15.8 °F 5.1 °F 8.6 °F 73% 30.00 in 8.0 mi North 8.1 mph - N/A   Overcast
2:53 AM 15.1 °F 2.5 °F 9.0 °F 77% 30.07 in 6.0 mi North 10.4 mph - 0.00 in Snow Light Snow
3:53 AM 14.0 °F 2.9 °F 7.0 °F 74% 30.08 in 5.0 mi North 8.1 mph - 0.00 in Snow Light Snow
4:53 AM 12.0 °F 0.5 °F 5.0 °F 73% 30.11 in 5.0 mi North 8.1 mph - 0.00 in Snow Light Snow
5:53 AM 10.9 °F -0.8 °F 3.9 °F 73% 30.14 in 4.0 mi North 8.1 mph - 0.00 in Snow Light Snow
6:53 AM 9.0 °F -4.2 °F 1.9 °F 73% 30.17 in 5.0 mi North 9.2 mph - 0.00 in Snow Light Snow
7:53 AM 3.9 °F -9.4 °F -0.9 °F 80% 30.18 in 8.0 mi NNW 8.1 mph - 0.00 in   Clear
8:53 AM 7.0 °F -6.6 °F -0.0 °F 73% 30.19 in 10.0 mi North 9.2 mph - N/A   Clear
9:53 AM 9.0 °F -2.2 °F 1.0 °F 70% 30.20 in 10.0 mi North 6.9 mph - N/A   Clear
10:53 AM 12.0 °F -1.3 °F 1.0 °F 61% 30.20 in 10.0 mi NNW 10.4 mph - N/A   Clear
11:53 AM 14.0 °F 2.0 °F 1.9 °F 59% 30.20 in 10.0 mi NW 9.2 mph - N/A   Clear
12:53 PM 17.1 °F 4.3 °F 3.0 °F 54% 30.20 in 10.0 mi NW 11.5 mph - N/A   Clear
1:53 PM 18.0 °F 5.4 °F 3.9 °F 54% 30.19 in 10.0 mi West 11.5 mph - N/A   Clear
2:53 PM 19.0 °F 6.1 °F 3.9 °F 52% 30.19 in 10.0 mi WNW 12.7 mph - N/A   Clear
3:24 PM 19.4 °F 5.0 °F 3.2 °F 49% 30.10 in 1.8 mi WNW 16.1 mph 21.9 mph N/A   Haze
3:38 PM 19.4 °F 6.6 °F 3.2 °F 49% 30.10 in 10.0 mi NW 12.7 mph 21.9 mph N/A   Clear
3:53 PM 19.9 °F 7.9 °F 3.9 °F 50% 30.17 in 10.0 mi WNW 11.5 mph - N/A   Partly Cloudy
4:53 PM 19.9 °F 6.2 °F 3.0 °F 48% 30.16 in 10.0 mi NW 15.0 mph 25.3 mph N/A   Clear
5:53 PM 19.9 °F 7.9 °F 3.0 °F 48% 30.17 in 10.0 mi NW 11.5 mph 20.7 mph N/A   Clear
6:53 PM 17.1 °F 3.0 °F 1.0 °F 50% 30.19 in 10.0 mi North 13.8 mph - N/A   Clear
7:53 PM 12.9 °F -0.2 °F -2.0 °F 51% 30.24 in 10.0 mi North 10.4 mph - N/A   Clear
8:53 PM 9.0 °F -0.9 °F -4.0 °F 56% 30.27 in 10.0 mi North 5.8 mph - N/A   Clear
9:53 PM 5.0 °F -5.6 °F -6.0 °F 61% 30.30 in 10.0 mi North 5.8 mph - N/A   Clear
10:53 PM 3.0 °F -9.3 °F -7.1 °F 63% 30.32 in 10.0 mi North 6.9 mph - N/A   Clear
11:53 PM -0.0 °F -7.9 °F -9.0 °F 66% 30.34 in 10.0 mi North 3.5 mph - N/A   Clear